Location: Newark
(44.1667°N, 8.2500°E)
Time: 00:41:16
(UTC+00:00)

N. Korean satellite - Visible Passes

Search period start: 14 November 2019 00:00
Search period end: 24 November 2019 00:00
Orbit: 456 x 506 km, 97.2° (Epoch: 12 November)

Date Brightness Start Highest point End Pass type
(mag) Time Alt. Az. Time Alt. Az. Time Alt. Az.
14 Nov 7.5 05:09:21 10° NNE 05:13:02 55° E 05:16:39 10° S visible
14 Nov 9.5 17:20:06 10° SW 17:22:55 21° W 17:25:47 10° NW visible
15 Nov 9.0 04:44:21 10° NE 04:47:34 27° E 04:50:44 10° SSE visible
15 Nov 8.0 16:53:58 10° S 16:57:24 43° W 17:00:56 10° NNW visible
16 Nov 10.1 04:19:58 10° ENE 04:22:00 14° E 04:23:59 10° ESE visible
16 Nov 7.0 05:52:04 10° N 05:55:36 41° WNW 05:59:05 10° SW visible
16 Nov 6.6 16:28:23 10° SSE 16:32:00 87° E 16:35:42 10° NNW visible
17 Nov 6.6 05:26:33 10° NNE 05:30:17 88° WNW 05:33:58 10° SSW visible
17 Nov 10.0 17:38:22 10° WSW 17:40:18 14° W 17:42:14 10° WNW visible
18 Nov 7.9 05:01:18 10° NNE 05:04:52 43° E 05:08:23 10° S visible
18 Nov 9.0 17:11:36 10° SSW 17:14:43 26° W 17:17:53 10° NW visible
19 Nov 9.3 04:36:26 10° NE 04:39:22 22° E 04:42:15 10° SE visible
19 Nov 7.5 16:45:40 10° S 16:49:13 55° W 16:52:52 10° NNW visible
20 Nov 10.2 04:12:36 10° ENE 04:13:44 11° E 04:14:53 10° ESE visible
20 Nov 6.8 05:43:50 10° N 05:47:28 52° WNW 05:51:01 10° SSW visible
21 Nov 6.8 05:18:23 10° NNE 05:22:06 74° E 05:25:45 10° S visible
21 Nov 9.8 17:29:34 10° SW 17:32:02 17° W 17:34:31 10° NW visible
22 Nov 8.4 04:53:14 10° NNE 04:56:39 34° E 05:00:00 10° SSE visible
22 Nov 8.6 17:03:08 10° SSW 17:06:28 33° W 17:09:52 10° NNW visible
23 Nov 9.7 04:28:33 10° NE 04:31:06 18° E 04:33:36 10° SE visible
23 Nov 7.3 06:01:15 10° N 06:04:34 32° WNW 06:07:50 10° SW visible
23 Nov 7.0 16:37:22 10° S 16:41:00 71° WSW 16:44:44 10° NNW visible
